Regional Weather Roundup
Issued by NWS Albany, NY

Home | Current Version | Previous Version | Text Only | Print | Product List | Glossary On
Versions: 1 2 3 4 5 6 7 8 9 10 11 12 13 14 15 16 17 18 19 20 21 22 23 24 25 26 27 28 29 30 31 32 33 34 35 36 37 38 39 40 41 42 43 44 45 46 47 48 49 50
000
ASUS41 KALY 041510
RWRALY

NEW YORK STATE HOURLY WEATHER ROUNDUP
NATIONAL WEATHER SERVICE ALBANY NY
1100 AM EDT TUE AUG 04 2015

NOTE: "FAIR" INDICATES FEW OR NO CLOUDS BELOW 12,000 FEET WITH NO
SIGNIFICANT WEATHER AND/OR NO OBSTRUCTIONS TO VISIBILITY.

NYZ032-033-038>043-046>054-057>066-NYZ062>081-041600-
EAST


CITY           SKY/WX    TMP DP  RH WIND       PRES   REMARKS
ALBANY         PTSUNNY   77  65  66 CALM      29.85R
GLENS FALLS    MOSUNNY   75  66  73 S8        29.83S
POUGHKEEPSIE   SUNNY     81  66  60 SW7       29.83S
NEWBURGH       MOSUNNY   75  68  78 SW6       29.86S
MONTGOMERY     MOSUNNY   79  69  71 W6        29.84S
WHITE PLAINS   SUNNY     81  64  56 W9        29.86R
ISLIP          MOSUNNY   83  67  58 SW15      29.85S
NEW YORK CITY  SUNNY     82  65  56 SW14G20   29.85R
CENTRAL PARK   SUNNY     80  68  66 CALM      29.88S
$$

NYZ005>009-017-018-044>046-055-056-041600-
CENTRAL


CITY           SKY/WX    TMP DP  RH WIND       PRES   REMARKS
FULTON         CLOUDY    71  61  70 W6        29.88R
SYRACUSE       PTSUNNY   75  60  59 W9        29.87R
ROME           MOSUNNY   74  59  59 NW10      29.88S
ELMIRA         MOSUNNY   74  62  66 SW9       29.89S
BINGHAMTON     MOSUNNY   72  61  68 W14       29.91R
MONTICELLO     PTSUNNY   75  66  73 W8        29.90R
$$

NYZ026>034-041>043-041600-
NORTH


CITY           SKY/WX    TMP DP  RH WIND       PRES   REMARKS
WATERTOWN      CLOUDY    71  59  65 SW9       29.86R
FORT DRUM      NOT AVBL
MASSENA        MOSUNNY   75  59  57 W17       29.82R
SARANAC LAKE   PTSUNNY   67  60  78 SW10G17   29.86R
PLATTSBURGH    PTSUNNY   68  62  81 VRB3      29.81S
$$

NYZ001>004-010>016-019>021-041600-
WEST


CITY           SKY/WX    TMP DP  RH WIND       PRES   REMARKS
NIAGARA FALLS  MOSUNNY   72  59  63 SW9       29.89S
BUFFALO        PTSUNNY   72  55  55 W7        29.90R
DUNKIRK        MOSUNNY   71  62  73 W8        29.92S
JAMESTOWN      MOSUNNY   68  57  68 W13G20    29.96S
WELLSVILLE     CLOUDY    66  57  72 SW5       29.97S
ROCHESTER      CLOUDY    71  62  73 W7        29.90R
PENN YAN       MOSUNNY   75  56  51 VRB7      29.90S
$$

             KEY
       WCI = WIND CHILL INDEX
       VSB = VISIBILITY
       HX  = HEAT INDEX
$$



USA.gov is the U.S. government's official web portal to all federal, state and local government web resources and services.